| time (UTC) | temp F | wind direction | speed MPH | gust MPH | rain 1hr in | rain 24hr in | rain mn in | humidity % | barometer mb |
| 20260906140009 | 52 | 360 | 0.0 | 0.0 | 0.00 | 0.00 | 0.00 | 81 | 1013.6 |
| 20260906134503 | 53 | 360 | 0.0 | 0.0 | 0.00 | 0.00 | 0.00 | 81 | 1013.4 |
| 20260906133001 | 53 | 360 | 0.0 | 0.0 | 0.00 | 0.00 | 0.00 | 80 | 1013.5 |
| 20260906131605 | 53 | 360 | 0.0 | 0.0 | 0.00 | 0.00 | 0.00 | 80 | 1013.4 |
| 20260906130058 | 53 | 275 | 0.0 | 0.0 | 0.00 | 0.00 | 0.00 | 80 | 1013.3 |
| 20260906124559 | 53 | 276 | 0.0 | 0.0 | 0.00 | 0.00 | 0.00 | 80 | 1013.1 |
| 20260906123056 | 54 | 276 | 0.0 | 0.0 | 0.00 | 0.00 | 0.00 | 80 | 1013.1 |
| 20260906121554 | 54 | 277 | 0.0 | 0.0 | 0.00 | 0.00 | 0.00 | 79 | 1013.2 |
| 20260906120051 | 54 | 277 | 0.0 | 0.0 | 0.00 | 0.00 | 0.00 | 80 | 1013.2 |
| 20260906114551 | 54 | 277 | 0.0 | 0.0 | 0.00 | 0.00 | 0.00 | 80 | 1013.1 |
| 20260906113051 | 54 | 277 | 0.0 | 0.0 | 0.00 | 0.00 | 0.00 | 79 | 1013.0 |
| 20260906111548 | 54 | 277 | 0.0 | 0.0 | 0.00 | 0.00 | 0.00 | 78 | 1012.9 |
| 20260906110046 | 55 | 277 | 0.0 | 0.0 | 0.00 | 0.00 | 0.00 | 76 | 1012.7 |
| 20260906104544 | 55 | 277 | 0.0 | 0.0 | 0.00 | 0.00 | 0.00 | 75 | 1012.8 |
| 20260906103042 | 55 | 277 | 0.0 | 0.0 | 0.00 | 0.00 | 0.00 | 75 | 1012.9 |
| 20260906101541 | 56 | 277 | 0.0 | 0.0 | 0.00 | 0.00 | 0.00 | 72 | 1012.9 |
| 20260906100037 | 57 | 277 | 0.0 | 0.0 | 0.00 | 0.00 | 0.00 | 71 | 1012.9 |
| 20260906094536 | 57 | 277 | 0.0 | 0.0 | 0.00 | 0.00 | 0.00 | 71 | 1012.9 |
| 20260906093033 | 58 | 277 | 0.0 | 0.0 | 0.00 | 0.00 | 0.00 | 70 | 1013.1 |
| 20260906091532 | 58 | 277 | 0.0 | 0.0 | 0.00 | 0.00 | 0.00 | 70 | 1013.0 |
| 20260906090027 | 59 | 277 | 0.0 | 0.0 | 0.00 | 0.00 | 0.00 | 69 | 1013.1 |
| 20260906084528 | 60 | 277 | 0.0 | 0.0 | 0.00 | 0.00 | 0.00 | 67 | 1013.0 |
| 20260906083025 | 60 | 278 | 0.0 | 0.0 | 0.00 | 0.00 | 0.00 | 66 | 1013.1 |
| 20260906081533 | 61 | 278 | 0.0 | 0.0 | 0.00 | 0.00 | 0.00 | 64 | 1013.2 |
| 20260906080020 | 61 | 360 | 0.0 | 0.0 | 0.00 | 0.00 | 0.00 | 63 | 1013.2 |
| 20260906074519 | 62 | 360 | 0.0 | 0.0 | 0.00 | 0.00 | 0.00 | 63 | 1013.2 |
| 20260906073015 | 62 | 360 | 0.0 | 0.0 | 0.00 | 0.00 | 0.00 | 62 | 1013.3 |
| 20260906071513 | 63 | 360 | 0.0 | 2.0 | 0.00 | 0.00 | 0.00 | 61 | 1013.2 |
| 20260906070012 | 63 | 360 | 2.0 | 5.0 | 0.00 | 0.00 | 0.00 | 61 | 1013.1 |
| 20260906064511 | 64 | 360 | 2.0 | 5.0 | 0.00 | 0.00 | 0.00 | 59 | 1013.1 |
| 20260906063010 | 64 | 360 | 2.0 | 4.0 | 0.00 | 0.00 | 0.00 | 59 | 1013.1 |
| 20260906061508 | 65 | 360 | 0.0 | 4.0 | 0.00 | 0.00 | 0.00 | 59 | 1013.2 |
| 20260906060008 | 65 | 360 | 2.0 | 8.0 | 0.00 | 0.00 | 0.00 | 59 | 1013.2 |
| 20260906054505 | 66 | 360 | 2.0 | 10.0 | 0.00 | 0.00 | 0.00 | 60 | 1013.1 |
| 20260906053002 | 66 | 360 | 3.0 | 8.0 | 0.00 | 0.00 | 0.00 | 61 | 1013.1 |
| 20260906051605 | 67 | 360 | 3.0 | 8.0 | 0.00 | 0.00 | 0.00 | 60 | 1013.2 |
| 20260906050116 | 68 | 261 | 5.0 | 12.0 | 0.00 | 0.00 | 0.00 | 58 | 1013.2 |
| 20260906043102 | 69 | 258 | 4.0 | 8.0 | 0.00 | 0.00 | 0.00 | 53 | 1013.0 |
| 20260906041549 | 70 | 271 | 3.0 | 9.0 | 0.00 | 0.00 | 0.00 | 52 | 1012.9 |
| 20260906040049 | 71 | 360 | 5.0 | 10.0 | 0.00 | 0.00 | 0.00 | 51 | 1012.7 |
| 20260906033050 | 72 | 360 | 5.0 | 10.0 | 0.00 | 0.00 | 0.00 | 50 | 1012.5 |
| 20260906031554 | 73 | 360 | 5.0 | 9.0 | 0.00 | 0.00 | 0.00 | 49 | 1012.3 |
| 20260906030056 | 74 | 272 | 3.0 | 9.0 | 0.00 | 0.00 | 0.00 | 48 | 1012.3 |
| 20260906023053 | 76 | 273 | 4.0 | 11.0 | 0.00 | 0.00 | 0.00 | 45 | 1012.2 |
| 20260906021606 | 77 | 252 | 7.0 | 12.0 | 0.00 | 0.00 | 0.00 | 42 | 1012.3 |
| 20260906020048 | 78 | 290 | 5.0 | 12.0 | 0.00 | 0.00 | 0.00 | 36 | 1012.2 |
| 20260906013041 | 80 | 288 | 3.0 | 9.0 | 0.00 | 0.00 | 0.00 | 37 | 1012.1 |
| 20260906011540 | 81 | 286 | 2.0 | 9.0 | 0.00 | 0.00 | 0.00 | 38 | 1012.1 |
| 20260906010042 | 83 | 239 | 3.0 | 8.0 | 0.00 | 0.00 | 0.00 | 36 | 1012.2 |
| 20260906003140 | 83 | 243 | 2.0 | 7.0 | 0.00 | 0.00 | 0.00 | 35 | 1012.2 |
| 20260906001539 | 84 | 250 | 4.0 | 10.0 | 0.00 | 0.00 | 0.00 | 34 | 1011.9 |
| 20260906000037 | 83 | 240 | 4.0 | 9.0 | 0.00 | 0.00 | 0.00 | 36 | 1011.9 |
| 20260905233036 | 84 | 257 | 1.0 | 9.0 | 0.00 | 0.00 | 0.00 | 37 | 1012.0 |
| 20260905231534 | 84 | 273 | 4.0 | 8.0 | 0.00 | 0.00 | 0.00 | 35 | 1012.3 |
| 20260905230031 | 85 | 253 | 3.0 | 11.0 | 0.00 | 0.00 | 0.00 | 35 | 1012.4 |
| 20260905223035 | 84 | 245 | 3.0 | 10.0 | 0.00 | 0.00 | 0.00 | 37 | 1012.7 |
| 20260905221529 | 84 | 277 | 3.0 | 10.0 | 0.00 | 0.00 | 0.00 | 37 | 1012.6 |
| 20260905220029 | 84 | 248 | 1.0 | 9.0 | 0.00 | 0.00 | 0.00 | 35 | 1012.9 |
| 20260905213029 | 82 | 249 | 5.0 | 10.0 | 0.00 | 0.00 | 0.00 | 35 | 1013.0 |
| 20260905211526 | 81 | 209 | 1.0 | 9.0 | 0.00 | 0.00 | 0.00 | 36 | 1013.3 |
| 20260905210028 | 80 | 297 | 2.0 | 5.0 | 0.00 | 0.00 | 0.00 | 40 | 1013.3 |
| 20260905203017 | 80 | 250 | 7.0 | 11.0 | 0.00 | 0.00 | 0.00 | 39 | 1013.5 |
| 20260905201513 | 79 | 355 | 1.0 | 7.0 | 0.00 | 0.00 | 0.00 | 46 | 1013.4 |
| 20260905200009 | 78 | 257 | 3.0 | 8.0 | 0.00 | 0.00 | 0.00 | 47 | 1013.6 |
| 20260905193008 | 75 | 248 | 1.0 | 6.0 | 0.00 | 0.00 | 0.00 | 53 | 1013.7 |
| 20260905191506 | 74 | 280 | 3.0 | 11.0 | 0.00 | 0.00 | 0.00 | 52 | 1014.1 |
| 20260905190009 | 75 | 244 | 0.0 | 5.0 | 0.00 | 0.00 | 0.00 | 55 | 1014.2 |
| 20260905183100 | 72 | 241 | 4.0 | 6.0 | 0.00 | 0.00 | 0.00 | 57 | 1014.2 |
| 20260905181556 | 72 | 215 | 5.0 | 9.0 | 0.00 | 0.00 | 0.00 | 58 | 1014.2 |
| 20260905180052 | 71 | 248 | 3.0 | 7.0 | 0.00 | 0.00 | 0.00 | 60 | 1014.0 |
| 20260905173045 | 69 | 250 | 3.0 | 7.0 | 0.00 | 0.00 | 0.00 | 64 | 1014.1 |
| 20260905171543 | 68 | 275 | 2.0 | 6.0 | 0.00 | 0.00 | 0.00 | 65 | 1014.1 |
| 20260905170040 | 67 | 271 | 3.0 | 6.0 | 0.00 | 0.00 | 0.00 | 67 | 1014.1 |
| 20260905163035 | 65 | 234 | 2.0 | 5.0 | 0.00 | 0.00 | 0.00 | 72 | 1014.1 |
| 20260905161531 | 64 | 269 | 2.0 | 6.0 | 0.00 | 0.00 | 0.00 | 75 | 1014.0 |
| 20260905160042 | 62 | 269 | 1.0 | 6.0 | 0.00 | 0.00 | 0.00 | 80 | 1014.0 |
| 20260905153018 | 58 | 136 | 0.0 | 1.0 | 0.00 | 0.00 | 0.00 | 87 | 1014.0 |
| 20260905151517 | 56 | 134 | 0.0 | 0.0 | 0.00 | 0.00 | 0.00 | 88 | 1014.0 |
| 20260905150023 | 55 | 134 | 0.0 | 1.0 | 0.00 | 0.00 | 0.00 | 88 | 1014.0 |
| 20260905143019 | 52 | 360 | 1.0 | 3.0 | 0.00 | 0.00 | 0.00 | 88 | 1013.8 |
| 20260905141509 | 51 | 132 | 0.0 | 1.0 | 0.00 | 0.00 | 0.00 | 87 | 1013.8 |